This demonstration page uses our WeatherBlox Daily Observations layout. Learn more.

Left ArrowRight Arrow

Hourly Observations for December 29, 2017

Temp ( °F °C ) Dew Point ( °F °C ) Humidity (%) Winds ( mph kmh ) Pressure ( in mb ) Visibility ( mi km ) Precip ( " mm )
12:15 am 00:15 Cloudy 16 -9 7 -13.7 69 69 SSW 5 7 30.45 1031 10 16 0.00 0.00
12:35 am 00:35 Cloudy 16 -9 8 -13.6 70 70 SW 8 13 30.45 1031 10 16 0.00 0.00
12:55 am 00:55 Cloudy 16 -8.8 8 -13.4 70 70 SW 6 9 30.45 1031 10 16 0.00 0.00
1:15 am 01:15 Cloudy 16 -8.7 7 -13.7 67 67 SW 9 15 30.42 1030 10 16 0.00 0.00
1:35 am 01:35 Cloudy 16 -8.8 7 -14 66 66 WSW 7 11 30.42 1030 10 16 0.00 0.00
1:55 am 01:55 Cloudy 16 -8.7 7 -13.7 67 67 WSW 7 11 30.42 1030 10 16 0.00 0.00
2:15 am 02:15 Cloudy 16 -8.8 8 -13.6 69 69 W 8 13 30.42 1030 10 16 0.00 0.00
2:35 am 02:35 Cloudy 16 -8.7 8 -13.5 69 69 W 7 11 30.42 1030 10 16 0.00 0.00
2:55 am 02:55 Cloudy 17 -8.6 8 -13.3 69 69 W 9 15 30.42 1030 10 16 0.00 0.00
3:15 am 03:15 Cloudy 17 -8.6 8 -13.4 69 69 W 9 15 30.42 1030 10 16 0.00 0.00
3:35 am 03:35 Cloudy 17 -8.6 8 -13.6 67 67 W 10 17 30.42 1030 10 16 0.00 0.00
3:55 am 03:55 Cloudy with Light Snow 16 -8.8 8 -13.5 69 69 W 15 24 30.42 1030 10 16 0.00 0.00
4:15 am 04:15 Cloudy with Light Snow 16 -8.9 9 -13 72 72 W 13 20 30.42 1030 10 16 0.00 0.00
4:35 am 04:35 Cloudy with Light Snow 16 -9 9 -13 73 73 WNW 10 17 30.42 1030 10 16 0.00 0.00
4:55 am 04:55 Cloudy with Light Snow 15 -9.2 9 -12.6 77 77 WNW 10 17 30.45 1031 10 16 0.00 0.00
5:35 am 05:35 Cloudy with Light Snow 15 -9.5 10 -12.5 79 79 W 13 20 30.42 1030 7 11 0.00 0.00
5:55 am 05:55 Cloudy with Light Snow 15 -9.6 10 -12.5 80 80 W 9 15 30.45 1031 7 11 0.00 0.00
6:15 am 06:15 Cloudy with Light Snow 14 -9.8 10 -12.5 81 81 WNW 9 15 30.45 1031 10 16 0.00 0.00
6:35 am 06:35 Cloudy with Light Snow 14 -10.2 10 -12.5 83 83 WNW 10 17 30.45 1031 5 8 0.00 0.00
6:55 am 06:55 Cloudy with Light Snow 13 -10.5 9 -12.6 85 85 WNW 9 15 30.45 1031 5 8 0.00 0.00
7:15 am 07:15 Cloudy with Light Snow 13 -10.5 8 -13.1 81 81 WNW 10 17 30.45 1031 7 11 0.00 0.00
7:35 am 07:35 Cloudy with Light Snow 13 -10.6 8 -13.5 79 79 WNW 13 20 30.48 1032 7 11 0.00 0.00
7:55 am 07:55 Cloudy with Light Snow 13 -10.7 7 -13.8 78 78 WNW 12 19 30.48 1032 10 16 0.00 0.00
8:15 am 08:15 Cloudy 12 -11 7 -14.1 78 78 NW 10 17 30.48 1032 10 16 0.00 0.00
8:35 am 08:35 Cloudy with Light Snow 12 -11.1 6 -14.2 78 78 WNW 7 11 30.45 1031 5 8 0.00 0.00
8:55 am 08:55 Cloudy with Light Snow 12 -11.2 7 -14 80 80 WNW 8 13 30.45 1031 4 6 0.00 0.00
9:15 am 09:15 Cloudy with Light Snow 12 -11.3 6 -14.6 77 77 WNW 7 11 30.45 1031 5 8 0.00 0.00
9:35 am 09:35 Cloudy with Light Snow 12 -11.1 6 -14.4 77 77 WNW 8 13 30.48 1032 5 8 0.00 0.00
9:55 am 09:55 Cloudy with Light Snow 12 -11.1 6 -14.4 77 77 WNW 8 13 30.48 1032 4 6 0.00 0.00
10:15 am 10:15 Partly Cloudy 12 -10.9 6 -14.3 76 76 WNW 7 11 30.48 1032 10 16 0.00 0.00
10:35 am 10:35 Partly Cloudy 13 -10.6 7 -14 76 76 WSW 8 13 30.48 1032 10 16 0.00 0.00
10:55 am 10:55 Mostly Cloudy with Light Snow 13 -10.5 6 -14.2 75 75 WSW 3 6 30.48 1032 10 16 0.00 0.00
11:15 am 11:15 Mostly Cloudy 13 -10.4 7 -13.9 76 76 SW 8 13 30.48 1032 10 16 0.00 0.00
11:35 am 11:35 Cloudy 13 -10.4 6 -14.3 73 73 WSW 7 11 30.45 1031 10 16 0.00 0.00
11:55 am 11:55 Mostly Cloudy 14 -10.2 6 -14.3 72 72 SW 6 9 30.45 1031 10 16 0.00 0.00
12:15 pm 12:15 Mostly Cloudy 14 -10 6 -14.2 72 72 WSW 5 7 30.45 1031 10 16 0.00 0.00
12:35 pm 12:35 Cloudy 14 -10 6 -14.2 72 72 NW 6 9 30.45 1031 10 16 0.00 0.00
12:55 pm 12:55 Cloudy 14 -10.1 6 -14.3 72 72 WNW 5 7 30.45 1031 10 16 0.00 0.00
1:15 pm 13:15 Cloudy 14 -10 6 -14.6 69 69 Calm 30.42 1030 10 16 0.00 0.00
1:35 pm 13:35 Cloudy 14 -10 5 -14.8 68 68 Calm 30.42 1030 10 16 0.00 0.00
1:55 pm 13:55 Cloudy 14 -10 6 -14.6 69 69 WSW 5 7 30.39 1029 7 11 0.00 0.00
2:15 pm 14:15 Cloudy with Light Snow 14 -10 8 -13.5 76 76 WSW 8 13 30.39 1029 2 3 0.00 0.00
2:35 pm 14:35 Cloudy with Light Snow 14 -10.1 9 -12.7 81 81 SW 3 6 30.39 1029 2 2 0.00 0.00
2:55 pm 14:55 Cloudy with Light Snow 13 -10.3 10 -12.5 84 84 Calm 30.36 1028 1 2 0.00 0.00
3:15 pm 15:15 Cloudy with Light Snow 13 -10.3 10 -12.3 85 85 Calm 30.36 1028 1 2 0.00 0.00
3:35 pm 15:35 Cloudy with Light Snow 14 -10.2 10 -12 87 87 Calm 30.36 1028 1 2 0.01 0.25
3:55 pm 15:55 Cloudy with Light Snow 13 -10.3 11 -11.8 89 89 Calm 30.36 1028 1 1 0.01 0.25
4:15 pm 16:15 Cloudy with Snow 14 -10.1 11 -11.5 90 90 WNW 3 6 30.39 1029 1 1 0.00 0.00
4:35 pm 16:35 Cloudy with Snow 14 -10 12 -11.2 91 91 WNW 3 6 30.39 1029 0 0 0.01 0.25
4:55 pm 16:55 Cloudy with Snow 14 -10 12 -11.2 91 91 Calm 30.39 1029 1 1 0.02 0.51
5:15 pm 17:15 Cloudy with Snow 14 -10 12 -11.1 92 92 Calm 30.36 1028 1 1 0.01 0.25
5:35 pm 17:35 Cloudy with Snow 14 -10 12 -11.1 92 92 Calm 30.36 1028 1 1 0.02 0.51
5:55 pm 17:55 Cloudy with Snow 14 -10 12 -11 92 92 Calm 30.36 1028 1 1 0.03 0.76
6:15 pm 18:15 Cloudy with Snow 14 -10.1 12 -11.1 92 92 Calm 30.36 1028 1 2 0.01 0.25
6:35 pm 18:35 Cloudy with Snow 14 -10.2 12 -11.3 92 92 Calm 30.36 1028 1 2 0.02 0.51
6:55 pm 18:55 Cloudy with Light Snow 14 -10.2 12 -11.3 92 92 NE 5 7 30.33 1027 3 5 0.02 0.51
7:15 pm 19:15 Cloudy with Light Snow 13 -10.3 11 -11.5 91 91 NNE 5 7 30.33 1027 4 6 0.00 0.00
7:35 pm 19:35 Cloudy with Light Snow 13 -10.5 11 -11.6 92 92 NNE 6 9 30.36 1028 2 2 0.00 0.00
7:55 pm 19:55 Cloudy with Light Snow 13 -10.5 11 -11.6 92 92 Calm 30.36 1028 1 2 0.01 0.25
8:15 pm 20:15 Cloudy with Light Snow 13 -10.5 11 -11.6 92 92 Calm 30.33 1027 1 2 0.00 0.00
8:35 pm 20:35 Cloudy with Light Snow 14 -10.2 11 -11.5 90 90 Calm 30.33 1027 3 5 0.00 0.00
8:55 pm 20:55 Cloudy with Light Snow 13 -10.4 11 -11.7 90 90 ENE 3 6 30.30 1026 3 5 0.00 0.00
9:15 pm 21:15 Cloudy with Light Snow 13 -10.4 11 -11.7 90 90 Calm 30.30 1026 4 6 0.00 0.00
9:35 pm 21:35 Cloudy with Light Snow 13 -10.5 11 -11.7 91 91 Calm 30.30 1026 5 8 0.00 0.00
9:55 pm 21:55 Cloudy with Light Snow 13 -10.5 11 -11.8 90 90 Calm 30.30 1026 3 5 0.00 0.00
10:15 pm 22:15 Cloudy with Light Snow 13 -10.5 11 -11.8 90 90 Calm 30.30 1026 7 11 0.00 0.00
10:35 pm 22:35 Cloudy with Light Snow 13 -10.5 11 -11.8 90 90 Calm 30.30 1026 7 11 0.00 0.00
10:55 pm 22:55 Cloudy with Light Snow 13 -10.6 11 -11.8 91 91 Calm 30.30 1026 7 11 0.00 0.00
11:15 pm 23:15 Cloudy with Light Snow 13 -10.6 11 -11.8 91 91 Calm 30.30 1026 5 8 0.00 0.00
11:35 pm 23:35 Cloudy with Light Snow 13 -10.7 10 -12 90 90 Calm 30.27 1025 7 11 0.01 0.25
11:55 pm 23:55 Cloudy with Light Snow 13 -10.6 11 -11.8 91 91 Calm 30.27 1025 7 11 0.01 0.25

Powered by AerisWeather